User: anonymous   Login
Location: Caltech
(34.1382°N, 118.1253°W)
Time: 23:41:10
(UTC-07:00)
Language:

Iridium 70 - Orbit

View from above orbital plane
View from above orbital plane
View from above satellite
View from above satellite

Ground track
Ground track

The orbit data is extracted from the following two-line orbital elements,

1 25342U 98032A   15089.49160362  .00000758  00000-0  26343-3 0  9993
2 25342 086.4016 202.6339 0002293 101.1866 350.1433 14.34218988883047
Epoch (UTC): 30 March 2015 11:47:54
Eccentricity: 0.0002293
inclination: 86.4016°
perigee height: 776 km
apogee height: 779 km
right ascension of ascending node: 202.6339°
argument of perigee: 101.1866°
revolutions per day: 14.34218988
mean anomaly at epoch: 350.1433°
orbit number at epoch: 88304

The dashed part of the orbit path shows where the satellite is in the earth's shadow,  

DLR